Weather in Bereznyaki

Russia / Samara Oblast     53°25′53″N   52°07′47″E
temp.,
°C
wind,
m/s
gust,
m/s
humid.,
%
clouds,
%
prec.,
mm/h
press.,
hPa
HPBL,
m
27 february, sat
sat2701:00−13sse101794100 1.4 1008562
04:00−11sse71494100 7.3 1004645
07:00−9sse51294100 1.1 1001399
10:00−6sse5795100 1.9 1000267
13:00−1ssw369998 0.7 999320
16:000sw4810099 1.5 999360
19:000sw4899100 2.4 997375
22:000wsw3699100 4.0 998250
28 february, sun
sun2801:00−2nw4698100 1.2 997182
04:00−10nw4795100 1.6 998190
07:00−12nw489598 0.0 1000220
10:00−11nw589493 0.1 1002313
13:00−9nw5892100 0.1 1004421
16:00−10nw5891100 0.1 1007493
19:00−13nw4893100 0.1 1009279
22:00−14nw369598 0.1 1012137
1 march, mon
mon101:00−15nw369586 0.1 1013164
04:00−16nw239688 0.1 101575
07:00−17nw359790 0.1 1017102
10:00−16nw359384 0.1 1019232
13:00−14nw349271 0.0 1020324
16:00−14nw469285 0.0 1021387
19:00−20wnw339887 0.0 102223
22:00−21w229946 0.0 102220
2 march, tue
tue201:00−22wsw2310033 0.0 102120
04:00−22ssw339943 0.0 102029
07:00−20s3710071 0.0 1017169
10:00−15ssw6119586 0.1 1014334
13:00−10ssw71294100 0.3 1011527
16:00−8ssw71394100 1.2 1008721
19:00−6ssw71393100 0.6 1005643
22:00−4ssw61395100 1.3 1003584
3 march, wed
wed301:00−4ssw51196100 0.8 1000450
04:00−5ssw389798 1.3 999216
07:00−5sw339795 0.4 99956
10:00−3wnw589698 0.8 1000401
13:00−4wnw6892100 0.3 1001469
16:00−3nw6991100 0.3 1002611
19:00−4nw4992100 0.1 1004600
22:00−6wnw4892100 0.1 1006197